Location: *
(45.9500°N, 9.0833°E)
Time: 21:01:31
(UTC+00:00)

Cosmos 864 Rocket - Pass Details

Date: 03 March 2021
Orbit: 954 x 991 km, 82.9° (Epoch: 21 April)

Event Time Altitude Azimuth Distance (km) Brightness Sun altitude
Rises 19:04:15 0° 178° (S) 3,621 7.3 -20.0°
Reaches altitude 10° 19:06:44 10° 176° (S) 2,683 6.6 -20.4°
Maximum altitude 19:12:49 69° 94° (E) 1,028 4.3 -21.5°
Drops below altitude 10° 19:19:00 10° 13° (NNE) 2,724 6.8 -22.5°
Sets 19:21:32 0° 11° (N) 3,681 7.6 -22.9°
